W0AKY-13 Weather Reports


time (UTC)temp
C
wind
direction
speed
KPH
gust
KPH
rain 1hr
cm
rain 24hr
cm
rain mn
cm
humidity
%
barometer
mb
20260502130642 4 30 0.0 0.0 0.00 0.00 0.00 78 1023.3
20260502130139 3 30 0.0 0.0 0.00 0.00 0.00 78 1023.4
20260502123625 1 28 0.0 0.0 0.00 0.00 0.00 92 1023.3
20260502123121 1 28 0.0 0.0 0.00 0.00 0.00 92 1023.6
20260502122618 0 28 0.0 0.0 0.00 0.00 0.00 92 1023.2
20260502122115 0 28 0.0 0.0 0.00 0.00 0.00 92 1023.2
20260502121613 0 28 0.0 0.0 0.00 0.00 0.00 92 1023.0
20260502121110 0 28 0.0 0.0 0.00 0.00 0.00 92 1023.1
20260502120606 0 28 0.0 0.0 0.00 0.00 0.00 92 1023.0
20260502115601 0 28 0.0 0.0 0.00 0.00 0.00 92 1022.9
20260502115056 0 28 0.0 0.0 0.00 0.00 0.00 92 1023.0
20260502114553 0 28 0.0 0.0 0.00 0.00 0.00 92 1022.8
20260502114050 0 28 0.0 0.0 0.00 0.00 0.00 92 1022.6
20260502113548 0 28 0.0 0.0 0.00 0.00 0.00 91 1022.9
20260502113046 0 28 0.0 0.0 0.00 0.00 0.00 91 1022.6
20260502112544 0 28 0.0 0.0 0.00 0.00 0.00 91 1022.6
20260502112041 0 28 0.0 0.0 0.00 0.00 0.00 91 1022.5
20260502111538 0 28 0.0 0.0 0.00 0.00 0.00 92 1022.6
20260502111036 0 28 0.0 0.0 0.00 0.00 0.00 92 1022.4
20260502110533 0 28 0.0 0.0 0.00 0.00 0.00 92 1022.5
20260502110031 0 28 0.0 0.0 0.00 0.00 0.00 92 1022.5
20260502105527 0 28 0.0 0.0 0.00 0.00 0.00 92 1022.4
20260502105025 0 28 0.0 0.0 0.00 0.00 0.00 92 1022.6
20260502104522 0 28 0.0 0.0 0.00 0.00 0.00 91 1022.4
20260502104020 0 28 0.0 0.0 0.00 0.00 0.00 91 1022.4
20260502103517 0 28 0.0 0.0 0.00 0.00 0.00 91 1022.3
20260502103015 0 28 0.0 0.0 0.00 0.00 0.00 92 1022.2
20260502102511 0 28 0.0 0.0 0.00 0.00 0.00 92 1022.4
20260502102008 0 28 0.0 0.0 0.00 0.00 0.00 92 1022.3
20260502101506 0 28 1.6 1.6 0.00 0.00 0.00 92 1022.5
20260502101004 0 28 0.0 0.0 0.00 0.00 0.00 91 1022.2
20260502100503 0 28 0.0 0.0 0.00 0.00 0.00 91 1022.2
20260502091437 0 28 0.0 0.0 0.00 0.00 0.00 91 1022.1
20260502090934 0 28 0.0 0.0 0.00 0.00 0.00 90 1022.2
20260502090431 0 28 0.0 0.0 0.00 0.00 0.00 90 1021.9
20260502071326 1 28 0.0 0.0 0.00 0.00 0.00 88 1022.2
20260502070824 1 28 0.0 0.0 0.00 0.00 0.00 87 1022.3
20260502070321 1 28 0.0 0.0 0.00 0.00 0.00 87 1022.2
20260502065820 1 28 0.0 0.0 0.00 0.00 0.00 87 1022.5
20260502065318 1 28 0.0 0.0 0.00 0.00 0.00 86 1022.4
20260502064815 1 28 0.0 0.0 0.00 0.00 0.00 86 1022.3
20260502064313 2 28 0.0 0.0 0.00 0.00 0.00 86 1022.3
20260502063810 2 28 0.0 0.0 0.00 0.00 0.00 86 1022.6
20260502063308 2 28 0.0 0.0 0.00 0.00 0.00 86 1022.5
20260502062805 2 28 0.0 0.0 0.00 0.00 0.00 86 1022.2
20260502062305 2 28 0.0 0.0 0.00 0.00 0.00 86 1022.2
20260502061801 2 28 0.0 0.0 0.00 0.00 0.00 85 1022.3
20260502061259 2 28 0.0 0.0 0.00 0.00 0.00 85 1022.4
20260502060759 2 27 0.0 0.0 0.00 0.00 0.00 85 1022.3
20260502060254 2 28 0.0 0.0 0.00 0.00 0.00 85 1022.3
20260502055753 2 27 0.0 0.0 0.00 0.00 0.00 84 1022.1
20260502055250 2 28 0.0 0.0 0.00 0.00 0.00 83 1022.4
20260502054749 2 28 0.0 0.0 0.00 0.00 0.00 84 1022.2
20260502054246 2 28 0.0 0.0 0.00 0.00 0.00 83 1022.3
20260502053744 2 28 0.0 0.0 0.00 0.00 0.00 82 1022.3
20260502053241 2 28 0.0 0.0 0.00 0.00 0.00 81 1022.2
20260502052739 3 28 0.0 0.0 0.00 0.00 0.00 81 1022.1
20260502052237 3 28 0.0 0.0 0.00 0.00 0.00 80 1022.0
20260502051734 3 28 0.0 0.0 0.00 0.00 0.00 79 1022.2
20260502051232 3 28 0.0 0.0 0.00 0.00 0.00 78 1021.9
20260502050728 3 27 0.0 0.0 0.00 0.00 0.00 80 1022.1
20260502050225 3 27 0.0 0.0 0.00 0.00 0.00 81 1022.1
20260502045722 3 27 0.0 0.0 0.00 0.00 0.00 81 1021.9
20260502045219 3 27 0.0 0.0 0.00 0.00 0.00 79 1022.0
20260502044715 3 27 0.0 0.0 0.00 0.00 0.00 80 1022.2
20260502044212 4 27 0.0 0.0 0.00 0.00 0.00 81 1022.2
20260502043709 4 27 0.0 0.0 0.00 0.00 0.00 81 1021.9
20260502043207 4 28 0.0 0.0 0.00 0.00 0.00 80 1022.2
20260502042706 4 28 0.0 0.0 0.00 0.00 0.00 79 1022.0
20260502042204 5 27 0.0 1.6 0.00 0.00 0.00 79 1022.1
20260502041701 4 28 0.0 0.0 0.00 0.00 0.00 78 1022.0
20260502041158 5 28 0.0 0.0 0.00 0.00 0.00 77 1022.0
20260502040655 5 28 0.0 0.0 0.00 0.00 0.00 76 1021.8
20260502040152 5 28 0.0 0.0 0.00 0.00 0.00 76 1022.1
20260502035648 5 28 0.0 0.0 0.00 0.00 0.00 76 1021.7
20260502035145 5 28 0.0 0.0 0.00 0.00 0.00 75 1021.8
20260502034643 5 28 0.0 0.0 0.00 0.00 0.00 74 1022.1
20260502034141 5 27 0.0 0.0 0.00 0.00 0.00 73 1022.0
20260502033639 5 27 0.0 0.0 0.00 0.00 0.00 70 1021.8
20260502033136 5 28 0.0 0.0 0.00 0.00 0.00 69 1021.7
20260502032632 5 28 0.0 0.0 0.00 0.00 0.00 69 1021.9
20260502032129 5 28 0.0 0.0 0.00 0.00 0.00 68 1021.6
20260502031627 6 28 0.0 0.0 0.00 0.00 0.00 67 1021.7
20260502031124 6 28 0.0 0.0 0.00 0.00 0.00 65 1021.5
20260502030623 6 28 0.0 0.0 0.00 0.00 0.00 63 1021.5
20260502030121 6 28 0.0 0.0 0.00 0.00 0.00 61 1021.7
20260502025617 6 27 0.0 0.0 0.00 0.00 0.00 60 1021.5
20260502025115 6 28 0.0 0.0 0.00 0.00 0.00 59 1021.4
20260502024613 6 27 0.0 0.0 0.00 0.00 0.00 57 1021.4
20260502024111 7 28 0.0 0.0 0.00 0.00 0.00 58 1021.2
20260502023609 7 28 0.0 0.0 0.00 0.00 0.00 57 1021.2
20260502023105 7 27 0.0 0.0 0.00 0.00 0.00 55 1021.1
20260502022602 8 27 0.0 0.0 0.00 0.00 0.00 55 1021.1
20260502022100 8 27 0.0 0.0 0.00 0.00 0.00 52 1021.5
20260502021557 8 27 0.0 0.0 0.00 0.00 0.00 52 1020.9
20260502021053 9 27 0.0 0.0 0.00 0.00 0.00 51 1021.0
20260502020551 9 23 0.0 0.0 0.00 0.00 0.00 49 1021.0
20260502020048 9 19 1.6 1.6 0.00 0.00 0.00 50 1020.8
20260502015546 10 19 0.0 0.0 0.00 0.00 0.00 49 1020.6
20260502015042 10 23 0.0 1.6 0.00 0.00 0.00 50 1020.6
20260502014539 10 26 1.6 1.6 0.00 0.00 0.00 48 1020.4
20260502014036 10 24 0.0 0.0 0.00 0.00 0.00 47 1020.5
20260502013531 10 32 1.6 1.6 0.00 0.00 0.00 47 1020.3
20260502013028 11 21 1.6 1.6 0.00 0.00 0.00 44 1020.4
20260502012526 11 32 1.6 1.6 0.00 0.00 0.00 42 1020.1
20260502012023 11 358 4.8 4.8 0.00 0.00 0.00 41 1020.2
20260502011519 11 354 3.2 3.2 0.00 0.00 0.00 41 1020.0
20260502011016 11 11 3.2 3.2 0.00 0.00 0.00 40 1020.1
20260502010514 11 351 4.8 4.8 0.00 0.00 0.00 39 1020.2
20260502010009 11 49 3.2 3.2 0.00 0.00 0.00 39 1020.1
20260502005508 12 37 1.6 1.6 0.00 0.00 0.00 40 1020.3
20260502005005 12 15 3.2 3.2 0.00 0.00 0.00 41 1020.0
20260502004500 12 357 3.2 3.2 0.00 0.00 0.00 38 1019.8
20260502003957 12 36 1.6 3.2 0.00 0.00 0.00 38 1020.1
20260502003455 12 2 8.0 9.7 0.00 0.00 0.00 35 1019.8
20260502002951 12 36 1.6 1.6 0.00 0.00 0.00 36 1019.7
20260502002448 12 33 4.8 4.8 0.00 0.00 0.00 37 1019.8
20260502001946 13 0 8.0 9.7 0.00 0.00 0.00 36 1019.8
20260502001443 13 10 4.8 9.7 0.00 0.00 0.00 35 1019.8
20260502000941 13 355 3.2 4.8 0.00 0.00 0.00 35 1019.6
20260502000439 13 31 4.8 8.0 0.00 0.00 0.00 37 1019.7
20260501235935 13 348 4.8 4.8 0.00 0.00 0.00 35 1019.7
20260501235431 13 43 1.6 3.2 0.00 0.00 0.00 35 1019.6
20260501234926 13 332 11.3 14.5 0.00 0.00 0.00 33 1019.8
20260501234423 13 40 1.6 1.6 0.00 0.00 0.00 34 1019.6
20260501233922 13 36 1.6 3.2 0.00 0.00 0.00 35 1019.4
20260501233419 13 20 3.2 4.8 0.00 0.00 0.00 34 1019.4
20260501232914 14 29 4.8 4.8 0.00 0.00 0.00 34 1019.6
20260501232412 13 31 3.2 3.2 0.00 0.00 0.00 35 1019.4
20260501231909 14 317 11.3 11.3 0.00 0.00 0.00 33 1019.5
20260501231407 14 35 4.8 4.8 0.00 0.00 0.00 34 1019.4
20260501230905 15 0 4.8 8.0 0.00 0.00 0.00 34 1019.6
20260501230404 15 314 4.8 4.8 0.00 0.00 0.00 34 1019.4
20260501225900 15 66 3.2 4.8 0.00 0.00 0.00 36 1019.5
20260501225358 15 90 6.4 9.7 0.00 0.00 0.00 35 1019.1
20260501224854 15 315 6.4 8.0 0.00 0.00 0.00 34 1019.5
20260501224352 15 24 1.6 3.2 0.00 0.00 0.00 33 1019.3
20260501223848 15 2 6.4 9.7 0.00 0.00 0.00 37 1019.5
20260501223344 15 40 6.4 9.7 0.00 0.00 0.00 37 1019.3
20260501222840 15 14 4.8 4.8 0.00 0.00 0.00 35 1019.4
20260501222338 15 31 4.8 4.8 0.00 0.00 0.00 35 1019.1
20260501221834 16 336 8.0 11.3 0.00 0.00 0.00 35 1019.2
20260501221331 16 348 4.8 8.0 0.00 0.00 0.00 34 1019.1
20260501220830 16 18 8.0 9.7 0.00 0.00 0.00 37 1019.0
20260501220327 16 10 4.8 9.7 0.00 0.00 0.00 37 1019.1
20260501215823 16 44 4.8 4.8 0.00 0.00 0.00 36 1018.9
20260501215319 16 21 4.8 8.0 0.00 0.00 0.00 35 1019.0
20260501214815 16 330 8.0 11.3 0.00 0.00 0.00 36 1019.1
20260501214310 16 309 11.3 14.5 0.00 0.00 0.00 31 1019.1
20260501213807 16 31 4.8 4.8 0.00 0.00 0.00 38 1019.1
20260501213303 16 53 6.4 9.7 0.00 0.00 0.00 37 1019.1
20260501212759 16 11 6.4 8.0 0.00 0.00 0.00 37 1019.1
20260501212255 15 38 3.2 4.8 0.00 0.00 0.00 35 1019.4
20260501211753 16 322 11.3 12.9 0.00 0.00 0.00 34 1019.4
20260501211250 16 355 11.3 14.5 0.00 0.00 0.00 38 1019.3
20260501210747 16 13 9.7 12.9 0.00 0.00 0.00 38 1019.1
20260501210243 16 21 3.2 4.8 0.00 0.00 0.00 36 1019.2
20260501205740 16 344 4.8 4.8 0.00 0.00 0.00 40 1019.2
20260501205237 15 4 8.0 9.7 0.00 0.00 0.00 36 1019.4
20260501204734 16 359 14.5 16.1 0.00 0.00 0.00 37 1019.5
20260501204231 16 39 3.2 3.2 0.00 0.00 0.00 38 1019.3
20260501203727 16 28 3.2 4.8 0.00 0.00 0.00 37 1019.7
20260501203224 15 47 8.0 14.5 0.00 0.00 0.00 37 1019.4
20260501202721 16 26 8.0 9.7 0.00 0.00 0.00 37 1019.4
20260501202218 16 23 4.8 4.8 0.00 0.00 0.00 38 1019.7
20260501201715 15 337 4.8 12.9 0.00 0.00 0.00 39 1019.6
20260501201211 16 29 3.2 4.8 0.00 0.00 0.00 41 1019.9
20260501200708 15 27 3.2 4.8 0.00 0.00 0.00 40 1019.8
20260501200206 16 264 8.0 11.3 0.00 0.00 0.00 38 1019.6
20260501195703 16 139 4.8 8.0 0.00 0.00 0.00 42 1019.7
20260501195159 15 349 12.9 14.5 0.00 0.00 0.00 39 1019.6
20260501194655 15 25 4.8 8.0 0.00 0.00 0.00 37 1019.8
20260501194150 15 41 3.2 4.8 0.00 0.00 0.00 40 1019.7
20260501193648 15 298 6.4 11.3 0.00 0.00 0.00 42 1019.7
20260501193146 15 39 4.8 4.8 0.00 0.00 0.00 43 1019.8
20260501192643 15 77 4.8 11.3 0.00 0.00 0.00 40 1019.7
20260501192140 15 18 6.4 9.7 0.00 0.00 0.00 40 1019.8
20260501191637 15 6 8.0 11.3 0.00 0.00 0.00 45 1019.7
20260501191129 15 48 4.8 4.8 0.00 0.00 0.00 42 1019.7
20260501190626 15 340 6.4 9.7 0.00 0.00 0.00 44 1019.9
20260501190121 15 41 1.6 4.8 0.00 0.00 0.00 45 1019.7
20260501185617 15 358 9.7 14.5 0.00 0.00 0.00 45 1019.6
20260501185113 15 354 4.8 4.8 0.00 0.00 0.00 47 1019.7
20260501184609 15 346 9.7 12.9 0.00 0.00 0.00 42 1019.8
20260501184104 15 35 4.8 8.0 0.00 0.00 0.00 45 1019.8
20260501183601 15 31 4.8 4.8 0.00 0.00 0.00 43 1019.7
20260501183057 15 357 6.4 11.3 0.00 0.00 0.00 43 1019.7
20260501182554 15 234 8.0 12.9 0.00 0.00 0.00 45 1019.8
20260501182051 14 323 6.4 8.0 0.00 0.00 0.00 46 1019.7
20260501181548 15 323 9.7 12.9 0.00 0.00 0.00 43 1019.7
20260501181045 14 8 11.3 12.9 0.00 0.00 0.00 43 1019.9
20260501180543 14 344 8.0 9.7 0.00 0.00 0.00 44 1019.8
20260501180038 14 34 3.2 3.2 0.00 0.00 0.00 47 1019.9
20260501175536 15 315 8.0 11.3 0.00 0.00 0.00 46 1020.0
20260501175032 14 3 4.8 8.0 0.00 0.00 0.00 47 1020.0
20260501174530 14 22 11.3 14.5 0.00 0.00 0.00 47 1020.0
20260501174027 14 21 8.0 11.3 0.00 0.00 0.00 46 1020.0
20260501173524 13 37 0.0 1.6 0.00 0.00 0.00 48 1019.9
20260501173021 13 68 3.2 4.8 0.00 0.00 0.00 45 1020.0
20260501172516 14 11 9.7 11.3 0.00 0.00 0.00 47 1020.0
20260501172012 13 2 4.8 4.8 0.00 0.00 0.00 47 1020.0
20260501171509 14 43 4.8 8.0 0.00 0.00 0.00 44 1020.1
20260501171005 14 52 3.2 4.8 0.00 0.00 0.00 42 1020.0
20260501170502 13 43 6.4 11.3 0.00 0.00 0.00 44 1020.1
20260501165959 13 299 6.4 12.9 0.00 0.00 0.00 42 1020.2
20260501165457 13 24 4.8 8.0 0.00 0.00 0.00 43 1019.8
20260501164954 13 10 11.3 12.9 0.00 0.00 0.00 41 1019.9
20260501164452 13 343 4.8 4.8 0.00 0.00 0.00 46 1019.9
20260501163948 13 291 8.0 9.7 0.00 0.00 0.00 46 1020.1
20260501163444 13 327 8.0 9.7 0.00 0.00 0.00 43 1019.8
20260501162941 13 346 4.8 8.0 0.00 0.00 0.00 44 1019.9
20260501162438 13 352 8.0 9.7 0.00 0.00 0.00 44 1019.8
20260501161935 13 333 6.4 9.7 0.00 0.00 0.00 46 1019.8
20260501161432 13 25 3.2 4.8 0.00 0.00 0.00 48 1019.9
20260501160928 12 5 6.4 8.0 0.00 0.00 0.00 48 1019.8
20260501160425 13 342 11.3 11.3 0.00 0.00 0.00 48 1019.5
20260501155923 12 336 4.8 8.0 0.00 0.00 0.00 53 1019.6
20260501155420 12 343 11.3 12.9 0.00 0.00 0.00 49 1019.6
20260501154916 12 39 4.8 11.3 0.00 0.00 0.00 51 1019.4
20260501154414 12 330 8.0 12.9 0.00 0.00 0.00 51 1019.6
20260501153911 12 2 12.9 14.5 0.00 0.00 0.00 49 1019.7
20260501153409 12 359 3.2 3.2 0.00 0.00 0.00 50 1019.6
20260501152904 12 359 8.0 11.3 0.00 0.00 0.00 54 1019.6
20260501152401 12 350 8.0 9.7 0.00 0.00 0.00 55 1019.7
20260501151859 11 348 6.4 9.7 0.00 0.00 0.00 56 1019.7
20260501151355 11 328 8.0 9.7 0.00 0.00 0.00 56 1019.5
20260501150851 11 33 1.6 3.2 0.00 0.00 0.00 57 1019.7
20260501150347 11 4 6.4 8.0 0.00 0.00 0.00 59 1019.5
20260501145844 11 40 3.2 3.2 0.00 0.00 0.00 58 1019.6
20260501145341 11 332 6.4 8.0 0.00 0.00 0.00 59 1019.8
20260501144838 11 355 6.4 8.0 0.00 0.00 0.00 59 1019.6
20260501144333 10 4 1.6 1.6 0.00 0.00 0.00 61 1019.7
20260501143830 10 53 8.0 11.3 0.00 0.00 0.00 59 1019.8
20260501143327 10 28 3.2 3.2 0.00 0.00 0.00 61 1019.6
20260501142824 10 344 4.8 4.8 0.00 0.00 0.00 61 1019.7
20260501142320 10 350 1.6 3.2 0.00 0.00 0.00 62 1019.7
20260501141816 10 32 1.6 1.6 0.00 0.00 0.00 63 1019.8
20260501141312 9 34 0.0 1.6 0.00 0.00 0.00 64 1019.8
20260501140811 9 12 3.2 3.2 0.00 0.00 0.00 65 1019.6
20260501140306 9 326 6.4 9.7 0.00 0.00 0.00 65 1019.6
20260501135803 9 53 0.0 1.6 0.00 0.00 0.00 67 1019.7
20260501135301 8 2 4.8 8.0 0.00 0.00 0.00 68 1019.7
20260501134757 8 357 4.8 4.8 0.00 0.00 0.00 69 1019.8
20260501134254 8 343 8.0 11.3 0.00 0.00 0.00 69 1019.6
20260501133750 8 8 3.2 4.8 0.00 0.00 0.00 71 1019.5
20260501133247 8 83 1.6 3.2 0.00 0.00 0.00 71 1019.6